Home   Weather   Ashgabat   Past weeks

Flag for Turkmenistan Past Weather in Ashgabat, Turkmenistan — Yesterday and Last 2 Weeks

Now
27 °F

Ice fog.


Feels Like: 19 °F
Forecast: 30 / 51 °F
Wind: 7 mph from Southeast

Location: Ashgabat

Current Time: Feb 21, 2017 at 3:56:55 am

Latest Report: Feb 21, 2017 at 3:00 am


Visibility: 3 mi

Pressure: 30.18 "Hg

Humidity: 93%

Dew Point: 25 °F

Location of AshgabatLocation

Past Weather in Ashgabat — Graph

°F

Ashgabat Temperature Yesterday

Maximum temperature yesterday: 39 °F (at 3:00 pm)
Minimum temperature yesterday: 25 °F (at 1:00 am)
Average temperature yesterday: 29 °F

High & Low Weather Summary for the Past Weeks

 TemperatureHumidityPressure
High59 °F (Feb 7, 2:00 pm)100% (Feb 6, 8:00 am)30.60 "Hg (Feb 6, 8:00 am)
Low25 °F (Feb 20, 1:00 am)29% (Feb 7, 4:00 pm)29.68 "Hg (Feb 16, 6:00 am)
Average35 °F86%30.24 "Hg
* Reported Feb 6 2:00 am — Feb 21 2:00 am, Ashgabat, Weather by CustomWeather, © 2017

Note: Actual official high and low records may vary slightly from our data, if they occured in-between our weather recording intervals... More about our weather records

Advertising

Ashgabat Weather History for the Previous 24 Hours

Scroll right to see more
 ConditionsComfort  
Time TempWeatherWind HumidityBarometerVisibility
2:00 am
Tue, Feb 21
28 °FIce fog.8 mph86%30.21 "Hg3 mi
1:00 am28 °FIce fog.8 mph93%30.24 "Hg3 mi
12:00 am28 °FClear.9 mph86%30.27 "Hg4 mi
11:00 pm
Mon, Feb 20
30 °FClear.10 mph86%30.27 "Hg4 mi
10:00 pm30 °FClear.10 mph86%30.30 "Hg4 mi
9:00 pm32 °FIce fog.10 mph87%30.33 "Hg3 mi
8:00 pm32 °FClear.14 mph87%30.33 "Hg4 mi
7:00 pm34 °FPassing clouds.12 mph87%30.33 "Hg5 mi
6:00 pm36 °FPassing clouds.12 mph81%30.33 "Hg6 mi
5:00 pm37 °FPassing clouds.10 mph81%30.33 "HgN/A
4:00 pm39 °FClear.9 mph70%30.36 "HgN/A
3:00 pm39 °FClear.7 mph70%30.36 "HgN/A
2:00 pm36 °FPassing clouds.6 mph75%30.39 "HgN/A
1:00 pm30 °FPassing clouds.7 mph100%30.42 "Hg6 mi
12:00 pm28 °FPartly sunny.7 mph93%30.42 "Hg4 mi
11:00 am27 °FIce fog.5 mph93%30.42 "Hg1 mi
10:00 am25 °FIce fog.1 mph100%30.45 "Hg0 mi
9:00 am25 °FIce fog.No wind93%30.45 "Hg0 mi
8:00 am25 °FIce fog.2 mph93%30.42 "Hg0 mi
7:00 am25 °FIce fog.2 mph93%30.42 "Hg0 mi
6:00 am25 °FIce fog.2 mph93%30.39 "Hg0 mi
5:00 am25 °FIce fog.3 mph93%30.39 "Hg0 mi
4:00 am25 °FIce fog.2 mph93%30.42 "Hg0 mi
3:00 am25 °FIce fog.3 mph93%30.42 "Hg0 mi
Weather by CustomWeather, © 2017

See weather overviewHow to use our weather pages